Tracking 35237 objects as of 5-Sep-2026
HD Live streaming from Space Station
objects crossing your sky now

QIANFAN-66

Track QIANFAN-66 now!
10-day predictions
QIANFAN-66 is classified as:


NORAD ID: 62796
Int'l Code: 2025-016M
Launch date: January 23, 2025
Source: People's Republic of China (PRC)
Launch site: Taiyaun Space Center, China (TSC)
Your satellite tracking list
Your tracking list is empty




NASA's NSSDC Master Catalog

Two Line Element Set (TLE):
1 62796U 25016M   26247.86754522  .00000032  00000-0  31677-4 0  9997
2 62796  88.9668  75.4134 0013280 293.3459  66.6294 13.51028317 83229
Source of the keplerian elements: AFSPC